Location: Betra
(48.4113°N, 8.6634°E)
Time: 15:28:50
(UTC+00:00)

Aureole 3 - Pass Details

Date: 05 August 2024
Orbit: 375 x 1118 km, 82.5° (Epoch: 09 September)

Event Time Altitude Azimuth Distance (km) Brightness Sun altitude
Rises 00:34:42 0° 3° (N) 2,967 8.4 -23.2°
Reaches altitude 10° 00:38:15 10° 30° (NNE) 1,872 7.1 -23.0°
Maximum altitude 00:40:13 13° 60° (ENE) 1,580 6.2 -22.9°
Drops below altitude 10° 00:42:02 10° 90° (E) 1,688 6.0 -22.8°
Enters shadow 00:43:22 - 106° (ESE) 1,975 6.2 -22.8°
